Content
SEND FEEDBACK

Daily
Averages
Monthly
Summary
United States of America

DUNSMUIR, CALIFORNIA


Home > North America > United States > California
Elevation: 3289 feet     Latitude: 41 12N     Longitude: 122 16W

WEATHER
 
SELECT A DAY
Number of Records: 234,973;   Date Range: 1/1/95 - 11/20/14
 
SHARE

PRINT THIS DATA

[ ← Previous Day ]
WEATHER ALMANAC - OCTOBER 25, 2013
[ Next Day → ]
[ °C ]   °F
Weather ElementAverageHighLow
Temperature47.7 °F73 °F (1:56 pm) (4:00 pm)
Dewpoint24.8 °F32 °F (6:56 pm) (7:00 pm)
Humidity44.1 %66 % (6:56 am)17 % (2:56 pm)
Barometer28.99 in30.30 in (7:56 am) (7:00 pm)
Wind Speed0.2 mph3.5 mph (4:56 pm)
Weather ElementAverage
Visibility10 mi
Wind DirectionNNE (12.1 °)

Weather ElementTotal
Precipitation---
Heating Degree Days28.5 (Base 65)
Averaged from 24 records on October 25, 2013
WEATHER CONDITIONS BREAKOUT
WIND DIRECTION BREAKOUT
WEATHER BY HOUR - OCTOBER 25, 2013
[ °C ]   °F
Local TimeTemperatureDewpointHumidityBarometerVisibilityWind DirectionWind SpeedGust SpeedPrecipitationEventsConditions
1:56 AM35.1 °F21.9 °F59 %30.19 in10.0 miCalmClear
2:56 AM36.0 °F21.9 °F57 %30.20 in10.0 miCalmClear
3:56 AM34.0 °F21.9 °F61 %30.21 in10.0 miCalmClear
4:56 AM34.0 °F21.0 °F59 %30.22 in10.0 miCalmClear
5:56 AM34.0 °F21.9 °F61 %30.24 in10.0 miCalmClear
6:56 AM32.0 °F21.9 °F66 %30.27 in10.0 miCalmClear
7:56 AM32.0 °F21.9 °F66 %30.30 in10.0 miCalmClear
8:56 AM41.0 °F25.0 °F53 %30.30 in10.0 miCalmClear
9:56 AM50.0 °F30.0 °F46 %30.30 in10.0 miCalmClear
10:56 AM61.0 °F26.1 °F26 %30.27 in10.0 miCalmClear
11:56 AM66.9 °F30.0 °F25 %30.26 in10.0 miCalmClear
12:56 PM71.1 °F26.1 °F19 %30.24 in10.0 miCalmClear
1:56 PM73.0 °F27.0 °F18 %30.23 in10.0 miCalmClear
2:56 PM73.0 °F26.1 °F17 %30.21 in10.0 miCalmClear
3:56 PM73.0 °F27.0 °F18 %30.22 in10.0 miCalmClear
4:00 PM0.0 °F0.0 °FNorth
4:56 PM71.1 °F30.9 °F23 %30.23 in10.0 miWNW (290°)3.5 mphClear
5:56 PM63.0 °F30.9 °F30 %30.24 in10.0 miCalmClear
6:56 PM55.9 °F32.0 °F40 %30.27 in10.0 miCalmClear
7:56 PM48.0 °F30.9 °F52 %30.30 in10.0 miCalmClear
8:56 PM43.0 °F28.0 °F56 %30.30 in10.0 miCalmClear
9:56 PM41.0 °F25.0 °F53 %30.29 in10.0 miCalmClear
10:56 PM39.0 °F24.1 °F55 %30.28 in10.0 miCalmClear
11:56 PM37.9 °F23.0 °F55 %30.26 in10.0 miCalmClear
Hourly data recorded from KMHS, located miles away from Dunsmuir, California







STORIES FROM OUR PARTNERS